Back to catalog

NEXTSAT-1

AliveScienceSSO
NORAD 43811·PAYLOAD·🇰🇷 South Korea

Launched Dec 3, 2018 from Vandenberg Space Force Base

Loading…

Next Passes (next 24 hours)

TLE

FreshSource: Space-Track

Epoch: Sep 14, 2026, 12:34 UTC

1 43811U 18099BF  26257.52412805  .00002087  00000-0  13567-3 0  9995
2 43811  97.3995 297.0954 0012949  36.3698 323.8408 15.08998147425356

Track NEXTSAT-1 in real time with AllMySat

Download on the App Store